Weather History for Hill City, KS

Change the Weather History Date:

Thursday, September 27, 2012

  Actual Average Record
Temperature  
Mean Temperature 62 °F 62 °F  
Max Temperature 76 °F 77 °F 95 °F (1952)
Min Temperature 48 °F 48 °F 33 °F (1984)
Degree Days  
Heating Degree Days 4    
Growing Degree Days 12 (Base 50)    
Moisture  
Dew Point 51 °F    
Average Humidity 84    
Maximum Humidity 100    
Minimum Humidity 40    
Precipitation  
Precipitation 0.00 in 0.05 in 1.18 in (2013)
Month to date precipitation 1.88 1.70  
Year to date precipitation 8.71 19.58  
Sea Level Pressure  
Sea Level Pressure 30.16 in    
Wind  
Wind Speed 2 mph (ENE)    
Max Wind Speed 10 mph    
Max Gust Speed -    
Visibility 6 miles    
Events Fog    
T = Trace of Precipitation, MM = Missing Value Source: NWS Daily Summary

Daily Weather History Graph

Daily Weather History Graph

Search for Another Location

Airport:

Trip Planner

Search our weather history database for the weather conditions in past years. The results will help you decide how hot, cold, wet, or windy it might be!

Date:

Astronomy

Sep. 27, 2012 Rise Set
Actual Time 7:32 AM CDT 7:27 PM CDT
Civil Twilight 7:05 AM CDT 7:54 PM CDT
Nautical Twilight 6:34 AM CDT 8:25 PM CDT
Astronomical Twilight 6:02 AM CDT 8:56 PM CDT
Moon 5:59 PM CDT (9/27) 5:03 AM CDT (9/27)
Length of Visible Light 12h 48m
Length of Day
11h 55m
Waxing Gibbous, 94% of the Moon is Illuminated
Sep 27
Waxing Gibbous
Sep 29
Full
Oct 8
Last Quarter
Oct 15
New
Oct 21
First Quarter

Hourly Weather History & Observations

Time (CDT) Temp. Dew Point Humidity Pressure Visibility Wind Dir Wind Speed Gust Speed Precip Events Conditions
1:53 AM 52.0 °F 51.1 °F 97% 30.13 in 9.0 mi Calm Calm - N/A   Clear
2:53 AM 50.0 °F 50.0 °F 100% 30.14 in 7.0 mi Calm Calm - N/A   Clear
3:53 AM 51.1 °F 50.0 °F 96% 30.17 in 8.0 mi Calm Calm - N/A   Mostly Cloudy
4:28 AM 51.8 °F 51.8 °F 100% 30.20 in 8.0 mi WNW 3.5 mph - N/A   Mostly Cloudy
4:53 AM 53.1 °F 52.0 °F 96% 30.16 in 6.0 mi NNW 3.5 mph - N/A   Scattered Clouds
5:53 AM 53.1 °F 53.1 °F 100% 30.17 in 6.0 mi West 4.6 mph - N/A   Mostly Cloudy
6:53 AM 51.1 °F 50.0 °F 96% 30.16 in 6.0 mi North 4.6 mph - N/A   Partly Cloudy
7:16 AM 50.0 °F 50.0 °F 100% 30.18 in 1.5 mi Calm Calm - N/A   Clear
7:19 AM 48.2 °F 48.2 °F 100% 30.18 in 0.8 mi Calm Calm - N/A   Clear
7:26 AM 50.0 °F 50.0 °F 100% 30.18 in 0.5 mi Calm Calm - N/A Fog Fog
7:31 AM 50.0 °F 48.2 °F 94% 30.18 in 1.5 mi Calm Calm - N/A   Partly Cloudy
7:33 AM 50.0 °F 48.2 °F 94% 30.18 in 3.0 mi Calm Calm - N/A   Partly Cloudy
7:37 AM 50.0 °F 50.0 °F 100% 30.19 in 1.8 mi Calm Calm - N/A   Partly Cloudy
7:39 AM 48.2 °F 48.2 °F 100% 30.18 in 0.8 mi Calm Calm - N/A   Mist
7:53 AM 50.0 °F 50.0 °F 100% 30.16 in 0.8 mi Calm Calm - N/A   Mist
7:55 AM 50.0 °F 50.0 °F 100% 30.17 in 1.2 mi Calm Calm - N/A   Partly Cloudy
8:03 AM 50.0 °F 48.2 °F 94% 30.18 in 0.8 mi Calm Calm - N/A   Mist
8:12 AM 48.2 °F 48.2 °F 100% 30.18 in 0.2 mi Calm Calm - N/A Fog Fog
8:53 AM 52.0 °F 52.0 °F 100% 30.18 in 0.8 mi Calm Calm - N/A   Mist
8:55 AM 51.8 °F 51.8 °F 100% 30.19 in 1.5 mi North 3.5 mph - N/A   Mostly Cloudy
8:57 AM 53.6 °F 53.6 °F 100% 30.19 in 3.0 mi North 3.5 mph - N/A   Mostly Cloudy
9:05 AM 55.4 °F 55.4 °F 100% 30.19 in 6.0 mi NE 5.8 mph - N/A   Scattered Clouds
9:53 AM 59.0 °F 57.0 °F 93% 30.19 in 10.0 mi Calm Calm - N/A   Partly Cloudy
10:53 AM 64.0 °F 54.0 °F 70% 30.19 in 10.0 mi East 5.8 mph - N/A   Mostly Cloudy
11:53 AM 66.9 °F 54.0 °F 63% 30.18 in 10.0 mi East 6.9 mph - N/A   Mostly Cloudy
1:53 PM 70.0 °F 54.0 °F 57% 30.16 in 10.0 mi East 8.1 mph - N/A   Overcast
2:53 PM 73.0 °F 54.0 °F 51% 30.13 in 10.0 mi East 8.1 mph - N/A   Scattered Clouds
3:53 PM 75.9 °F 51.1 °F 42% 30.10 in 10.0 mi SE 10.4 mph - N/A   Partly Cloudy
4:53 PM 73.9 °F 48.0 °F 40% 30.09 in 10.0 mi East 10.4 mph - N/A   Scattered Clouds
5:53 PM 73.9 °F 48.9 °F 41% 30.09 in 10.0 mi East 6.9 mph - N/A   Mostly Cloudy
6:53 PM 71.1 °F 51.1 °F 49% 30.11 in 10.0 mi SE 8.1 mph - N/A   Overcast
7:53 PM 63.0 °F 48.9 °F 60% 30.12 in 10.0 mi East 3.5 mph - N/A   Clear
8:53 PM 59.0 °F 46.9 °F 64% 30.14 in 10.0 mi ESE 4.6 mph - N/A   Clear
9:53 PM 55.9 °F 46.9 °F 72% 30.13 in 10.0 mi East 5.8 mph - N/A   Clear
10:53 PM 55.0 °F 45.0 °F 69% 30.14 in 10.0 mi Calm Calm - N/A   Clear